Hourly Data Report for November 03, 2003

TORONTO CITY
ONTARIO

43°40'00.000" N
79°24'00.000" W
112.50 m
6158355
71508
XTO

Download Data

Hourly Data (November 2003)
Hourly Data Report for November 3, 2003
TIME
LST
Temp Definition
°C
Dew Point Definition
°C
Rel Hum Definition
%
Precip. Amount Definition
mm

Wind Dir Definition
10's deg

Wind Spd Definition
km/h
Visibility Definition
km
Stn Press Definition
kPa
Hmdx Definition


Wind Chill Definition


Weather Definition


00:00 8.9 8.7 99   LegendMM LegendMM LegendMM 100.61     LegendNANA
01:00 8.9 8.7 99   LegendMM LegendMM LegendMM 100.59     LegendNANA
02:00 9.0 9.0 100   LegendMM LegendMM LegendMM 100.59     LegendNANA
03:00 9.1 9.1 100   LegendMM LegendMM LegendMM 100.56     LegendNANA
04:00 9.3 9.3 100   LegendMM LegendMM LegendMM 100.62     LegendNANA
05:00 9.6 9.6 100   LegendMM LegendMM LegendMM 100.65     LegendNANA
06:00 9.8 9.7 99   LegendMM LegendMM LegendMM 100.71     LegendNANA
07:00 10.0 9.8 99   LegendMM LegendMM LegendMM 100.72     LegendNANA
08:00 10.3 10.0 98   LegendMM LegendMM LegendMM 100.75     LegendNANA
09:00 9.6 8.9 95   LegendMM LegendMM LegendMM 100.86     LegendNANA
10:00 9.9 9.2 95   LegendMM LegendMM LegendMM 100.79     LegendNANA
11:00 9.8 8.7 93   LegendMM LegendMM LegendMM 100.78     LegendNANA
12:00 10.1 8.4 89   LegendMM LegendMM LegendMM 100.74     LegendNANA
13:00 10.0 8.5 90   LegendMM LegendMM LegendMM 100.72     LegendNANA
14:00 9.6 8.6 93   LegendMM LegendMM LegendMM 100.69     LegendNANA
15:00 9.4 7.6 89   LegendMM LegendMM LegendMM 100.66     LegendNANA
16:00 9.2 7.0 86   LegendMM LegendMM LegendMM 100.64     LegendNANA
17:00 8.2 7.1 93   LegendMM LegendMM LegendMM 100.64     LegendNANA
18:00 8.0 7.4 96   LegendMM LegendMM LegendMM 100.70     LegendNANA
19:00 7.8 7.2 96   LegendMM LegendMM LegendMM 100.73     LegendNANA
20:00 7.7 7.0 95   LegendMM LegendMM LegendMM 100.79     LegendNANA
21:00 7.5 6.9 96   LegendMM LegendMM LegendMM 100.72     LegendNANA
22:00 7.3 6.7 96   LegendMM LegendMM LegendMM 100.77     LegendNANA
23:00 6.9 6.3 96   LegendMM LegendMM LegendMM 100.80     LegendNANA

Notes on Data Quality.

Legend

  • E = Estimated
  • M = Missing
  • NA = Not Available*
  • [empty] = Indicates an unobserved value
Date modified: